Meteo Giornale » Osservazioni meteo Argentina » Posadas Aero
ore: 21:00 - Osservazioni Meteo Posadas Aero
Lat. 27° 22' S Lon. 55° 58' W Alt. 131 metri s.l.m.
20 °C
Molto Nuvoloso
Temp. 24 Ore
18 °C
21 °C
Sud-Ovest
9.3 Km/h
Dew point 19 °C
Umidità 93 %
Visibilità 10 Km
Il sole sorge alle ore 06:57
Il sole tramonta alle ore 18:30
| Data e Ora | Cielo e Fenomeni | T °C | DP °C | Um. % | Pres. hPa | Vis. km | Vento km/h | |
|---|---|---|---|---|---|---|---|---|
| Oggi h: 21:00 | Molto Nuvoloso | 20 | 19 | 93 | 1011 | 10 | SO 9.3 | |
| Oggi h: 20:00 | Molto Nuvoloso | 20 | 19 | 93 | 1010 | 10 | S/SO 9.3 | |
| Oggi h: 19:00 | Molto Nuvoloso | 20 | 20 | 100 | 1010 | 10 | S 7.4 | |
| Oggi h: 18:00 | Molto Nuvoloso | 20 | 19 | 93 | 1009 | 10 | N 5.5 | |
| Oggi h: 17:00 | Molto Nuvoloso | 21 | 19 | 88 | 1008 | 10 | S/SE 7.4 | |
| Oggi h: 16:39 | Pioggia | 21 | 19 | 88 | 1007 | 4 | S/SO 9.3 | |
| Oggi h: 16:00 | Coperto | 21 | 19 | 88 | 1007 | 10 | S/SE 9.3 | |
| Oggi h: 15:00 | Pioggia | 20 | 20 | 100 | 1008 | 5 | N 3.7 | |
| Oggi h: 14:00 | Coperto | 20 | 19 | 93 | 1007 | 10 | SE 7.4 | |
| Oggi h: 13:00 | Pioggia | 20 | 19 | 93 | 1008 | 8 | E/NE 9.3 | |
| Oggi h: 12:00 | Pioggia | 20 | 19 | 93 | 1008 | 10 | SE 7.4 | |
| Oggi h: 11:00 | Coperto | 19 | 18 | 93 | 1009 | 10 | N 3.7 | |
| Oggi h: 10:00 | Temporale | 19 | 18 | 93 | 1009 | 6 | N 3.7 | |
| Oggi h: 09:37 | Temporale | 18 | 18 | 100 | 1007 | 4 | SE 7.4 | |
| Oggi h: 09:30 | Temporale | 18 | 18 | 100 | 1007 | 8 | N 5.5 | |
| Oggi h: 09:00 | Pioggia | 18 | 18 | 100 | 1007 | 8 | SE 13 | |
| Oggi h: 08:00 | Molto Nuvoloso | 18 | 18 | 100 | 1007 | 10 | E/NE 9.3 | |
| Oggi h: 07:00 | Molto Nuvoloso | 18 | 17 | 93 | 1007 | 10 | E/SE 7.4 | |
| Oggi h: 06:00 | Temporale | 18 | 18 | 100 | 1006 | 10 | E/SE 9.3 | |
| Oggi h: 05:00 | Temporale | 18 | 18 | 100 | 1007 | 9 | N 5.5 | |
| Oggi h: 04:41 | Temporale | 18 | 17 | 93 | 1008 | 5 | SE 9.3 | |
| Oggi h: 04:00 | Temporale | 18 | 17 | 93 | 1007 | 10 | SE 7.4 | |
| Oggi h: 03:00 | Nuvoloso | 18 | 18 | 100 | 1008 | 10 | SE 9.3 | |
| Oggi h: 02:00 | Sereno | 19 | 18 | 93 | 1009 | 10 | SE 7.4 | |
| Oggi h: 01:00 | Nuvoloso | 19 | 18 | 93 | 1010 | 10 | E/SE 7.4 | |
| Oggi h: 00:00 | Molto Nuvoloso | 19 | 18 | 93 | 1011 | 10 | E/SE 9.3 | |
| Ieri h: 23:00 | Nuvoloso | 20 | 19 | 93 | 1010 | 10 | E/SE 7.4 | |
| Ieri h: 22:00 | Molto Nuvoloso | 20 | 18 | 88 | 1010 | 10 | SE 11.1 | |



